www.pogodaiklimat.ru

Погода и климат >> Архив погоды >> Австралия >> Wyndham Aero


ПОГОДА в Wyndham Aero

  • Прогноз погоды в Wyndham Aero
  • Монитор погоды в Wyndham Aero
  • Климат города

АРХИВ ПОГОДЫ в Wyndham Aero

Время (UTC), дата Ветер
(напр.,м/с)
 
Видим.   Явления Облачность Т
(С)
Тd
(С)
f
(%)
Тe
(С)
Тes
(С)
Комфортность P
(гПа)
Po
(гПа)
Тmin
(С)
Tmax
(С)
R
(мм)
R24
(мм)
S
(см)
23 19.05 В 4 н/о н/о +22.5 1014.9 1014.4
22 19.05 В 3 н/о н/о +16.0 +16 +16 1014.2 1013.7
00 20.05 В 9 н/о н/о +25.4 1015.0 1014.5
01 20.05 В 9 н/о н/о +27.0 +22 +22 комфорт 1014.9 1014.4 +14.7
02 20.05 В 9 н/о н/о +28.9 1014.5 1014.0
03 20.05 В 8 н/о н/о +30.1 1013.6 1013.1
05 20.05 В 7 н/о н/о +31.9 1012.1 1011.6
04 20.05 ЮВ 7 н/о н/о +31.1 +26 +26 жарко 1012.7 1012.2
06 20.05 В 6 н/о н/о +31.5 1011.9 1011.4
07 20.05 В 6 н/о н/о +31.4 +26 +26 жарко 1011.6 1011.1
08 20.05 В 6 н/о н/о +30.7 1012.0 1011.5
09 20.05 В 5 н/о н/о +28.4 1012.9 1012.4
11 20.05 В 3 н/о н/о +22.4 1014.5 1014.0
10 20.05 ЮВ 4 н/о н/о +24.9 +21 +21 комфорт 1013.6 1013.1
12 20.05 В 2 н/о н/о +21.5 1015.2 1014.7
13 20.05 штиль 0 н/о н/о +19.5 +19 +19 1015.5 1015.0 +32.4
14 20.05 СВ 2 н/о н/о +18.2 1015.2 1014.7
15 20.05 В 3 н/о н/о +20.2 1015.1 1014.6
17 20.05 В 2 н/о н/о +18.2 1014.4 1013.9
16 20.05 В 3 н/о н/о +20.1 +19 +19 1014.8 1014.3
18 20.05 В 2 н/о н/о +17.9 1014.0 1013.5
19 20.05 ЮВ 3 н/о н/о +17.1 +17 +17 1014.0 1013.5
20 20.05 ЮВ 2 н/о н/о +16.7 1014.2 1013.7
21 20.05 ЮВ 3 н/о н/о +16.3 1014.8 1014.3
23 20.05 В 4 н/о н/о +24.1 1015.9 1015.4
22 20.05 ЮВ 2 н/о н/о +16.8 +17 +17 1015.6 1015.1
00 21.05 В 9 н/о н/о +26.7 1015.9 1015.4
01 21.05 В 10 н/о н/о +28.0 +23 +23 комфорт 1015.8 1015.3 +15.5
02 21.05 В 8 н/о н/о +29.5 1015.3 1014.8
03 21.05 В 9 н/о н/о +30.9 1014.5 1014.0
05 21.05 В 8 н/о н/о +32.2 1012.7 1012.2
04 21.05 В 8 н/о н/о +32.0 1013.3 1012.8
06 21.05 В 7 н/о н/о +32.8 1012.2 1011.7
07 21.05 В 7 н/о н/о +32.6 1012.3 1011.8
08 21.05 В 6 н/о н/о +31.8 1013.0 1012.5
09 21.05 В 5 н/о н/о +29.6 1013.8 1013.3
11 21.05 В 3 н/о н/о +24.1 1015.5 1015.0
10 21.05 ЮВ 4 н/о н/о +26.0 1014.7 1014.2
12 21.05 В 2 н/о н/о +22.3 1016.3 1015.8
13 21.05 В 2 н/о н/о +21.2 +19 +19 1016.1 1015.6 +33.4
14 21.05 В 3 н/о н/о +22.5 1015.7 1015.2
15 21.05 В 2 н/о н/о +22.1 1015.8 1015.3
17 21.05 В 4 н/о н/о +22.2 1015.1 1014.6
16 21.05 В 3 н/о н/о +23.2 +19 +19 1015.4 1014.9
18 21.05 В 5 н/о н/о +23.0 1014.4 1013.9
19 21.05 В 4 н/о н/о +23.2 +19 +19 1014.4 1013.9
20 21.05 В 6 н/о н/о +23.3 1014.5 1014.0
21 21.05 В 5 н/о н/о +22.3 1015.1 1014.6
23 21.05 В 7 н/о н/о +24.6 1016.8 1016.3
22 21.05 ЮВ 4 н/о н/о +20.2 +19 +19 1015.9 1015.4
00 22.05 В 9 н/о н/о +25.8 1017.4 1016.9
01 22.05 В 10 н/о н/о +26.8 +22 +22 комфорт 1017.3 1016.8 +20.1
02 22.05 В 8 н/о н/о +28.5 1017.0 1016.5
03 22.05 В 7 н/о н/о +28.9 1016.3 1015.8
05 22.05 В 5 н/о н/о +30.5 1014.3 1013.8
04 22.05 ЮВ 7 н/о н/о +29.9 +25 +25 комфорт 1015.2 1014.7
06 22.05 В 7 н/о н/о +30.7 1013.3 1012.8
07 22.05 В 7 н/о н/о +30.8 +26 +26 жарко 1013.1 1012.6
08 22.05 ЮВ 7 н/о н/о +30.0 1013.6 1013.1
09 22.05 ЮВ 5 н/о н/о +27.5 1014.2 1013.7
11 22.05 В 4 н/о н/о +24.6 1016.0 1015.5
10 22.05 В 3 н/о н/о +25.0 +21 +21 комфорт 1015.1 1014.6
12 22.05 В 3 н/о н/о +24.2 1016.8 1016.3
13 22.05 В 3 н/о н/о +24.2 +20 +20 1016.6 1016.1 +31.6
14 22.05 В 4 н/о н/о +21.9 1016.7 1016.2
15 22.05 В 3 н/о н/о +21.3 1016.4 1015.9
17 22.05 ЮВ 1 н/о н/о +19.0 1015.8 1015.3
16 22.05 штиль 0 н/о н/о +20.8 +19 +19 1015.9 1015.4
18 22.05 В 2 н/о н/о +20.7 1015.6 1015.1
19 22.05 В 2 н/о н/о +19.3 +19 +19 1015.0 1014.5
20 22.05 ЮВ 1 н/о н/о +18.6 1014.8 1014.3
21 22.05 штиль 0 н/о н/о +17.8 1015.2 1014.7
23 22.05 В 4 н/о н/о +23.5 1016.6 1016.1
22 22.05 ЮВ 3 н/о н/о +18.5 +19 +19 1015.8 1015.3
00 23.05 В 9 н/о н/о +26.3 1016.9 1016.4
01 23.05 В 9 н/о н/о +28.3 +23 +23 комфорт 1016.7 1016.2 +17.2
02 23.05 В 8 н/о н/о +29.1 1015.9 1015.4
03 23.05 В 6 н/о н/о +30.5 1015.0 1014.5
05 23.05 ЮВ 6 н/о н/о +31.8 1012.7 1012.2
04 23.05 ЮВ 6 н/о н/о +31.6 1013.9 1013.4
06 23.05 ЮВ 6 н/о н/о +32.2 1011.8 1011.3
07 23.05 В 5 н/о н/о +32.1 1011.5 1011.0
08 23.05 В 5 н/о н/о +31.5 1011.5 1011.0
09 23.05 В 4 н/о н/о +28.8 1012.2 1011.7
11 23.05 ЮВ 3 н/о н/о +23.9 1013.9 1013.4
10 23.05 В 3 н/о н/о +25.2 +21 +21 комфорт 1012.9 1012.4
12 23.05 В 3 н/о н/о +23.5 1014.4 1013.9
13 23.05 штиль 0 н/о н/о +21.6 +19 +19 1014.3 1013.8 +33.3
14 23.05 штиль 0 н/о н/о +19.1 1014.4 1013.9
15 23.05 В 3 н/о н/о +19.6 1014.2 1013.7
17 23.05 В 4 н/о н/о +20.4 1013.4 1012.9
16 23.05 В 3 н/о н/о +19.4 +19 +19 1013.9 1013.4
18 23.05 В 3 н/о н/о +20.6 1013.1 1012.6
19 23.05 В 2 н/о н/о +17.7 +18 +18 1013.3 1012.8
20 23.05 ЮВ 1 н/о н/о +17.4 1013.6 1013.1
21 23.05 штиль 0 н/о н/о +16.5 1013.8 1013.3
23 23.05 В 2 н/о н/о +23.0 1014.8 1014.3
22 23.05 штиль 0 н/о н/о +14.9 +15 +15 1014.6 1014.1
00 24.05 ЮВ 6 н/о н/о +26.6 1015.1 1014.6
01 24.05 ЮВ 6 н/о н/о +28.4 +23 +23 комфорт 1014.9 1014.4 +14.8
02 24.05 ЮВ 6 н/о н/о +29.7 1014.2 1013.7
03 24.05 ЮВ 5 н/о н/о +30.2 1013.2 1012.7
05 24.05 ЮВ 3 н/о н/о +32.0 1011.0 1010.5
04 24.05 В 4 н/о н/о +31.5 +26 +26 жарко 1012.1 1011.6
06 24.05 ЮВ 4 н/о н/о +32.7 1010.4 1009.9
07 24.05 ЮВ 3 н/о н/о +32.6 1010.4 1009.9
08 24.05 ЮВ 3 н/о н/о +31.8 1010.6 1010.1
09 24.05 В 4 н/о н/о +28.2 1011.5 1011.0
11 24.05 В 3 н/о н/о +23.3 1012.9 1012.4
10 24.05 В 4 н/о н/о +25.6 1012.2 1011.7
12 24.05 З 1 н/о н/о +21.4 1013.4 1012.9
13 24.05 СЗ 2 н/о н/о +21.1 +19 +19 1013.1 1012.6 +32.9
14 24.05 штиль 0 н/о н/о +18.1 1012.9 1012.4
15 24.05 штиль 0 н/о н/о +17.5 1012.7 1012.2
17 24.05 ЮЗ 2 н/о н/о +16.4 1012.2 1011.7
16 24.05 штиль 0 н/о н/о +16.1 +16 +16 1012.4 1011.9
18 24.05 штиль 0 н/о н/о +16.3 1012.2 1011.7
19 24.05 штиль 0 н/о н/о +16.2 +16 +16 1012.1 1011.6
20 24.05 штиль 0 н/о н/о +15.6 1012.0 1011.5
21 24.05 штиль 0 н/о н/о +14.0 1012.2 1011.7
23 24.05 С 2 н/о н/о +21.0 1013.5 1013.0
22 24.05 З 2 н/о н/о +14.4 +15 +15 1012.8 1012.3
00 25.05 З 2 н/о н/о +25.0 1013.6 1013.1
01 25.05 В 4 н/о н/о +29.3 +24 +24 комфорт 1013.3 1012.8 +14.0
02 25.05 В 6 н/о н/о +31.2 1012.5 1012.0
03 25.05 В 6 н/о н/о +32.0 1011.8 1011.3
05 25.05 В 4 н/о н/о +33.4 1009.8 1009.3
04 25.05 В 5 н/о н/о +32.9 +28 +28 жарко 1010.9 1010.4
06 25.05 ЮВ 5 н/о н/о +33.9 1009.5 1009.0
07 25.05 В 4 н/о н/о +34.2 1009.3 1008.8
08 25.05 ЮВ 4 н/о н/о +33.3 1009.3 1008.8
09 25.05 В 4 н/о н/о +29.3 1009.8 1009.3
11 25.05 ЮВ 4 н/о н/о +23.9 1011.2 1010.7
10 25.05 ЮВ 3 н/о н/о +25.8 1010.4 1009.9
12 25.05 ЮВ 4 н/о н/о +23.2 1011.8 1011.3
13 25.05 штиль 0 н/о н/о +21.0 +19 +19 1012.2 1011.7 +34.8
14 25.05 В 3 н/о н/о +20.2 1012.3 1011.8
15 25.05 В 3 н/о н/о +18.9 1012.2 1011.7
17 25.05 З 2 н/о н/о +17.2 1011.8 1011.3
16 25.05 штиль 0 н/о н/о +18.0 +18 +18 1012.1 1011.6
18 25.05 З 2 н/о н/о +18.2 1011.7 1011.2
19 25.05 С 3 н/о н/о +17.6 +18 +18 1011.7 1011.2
20 25.05 С 2 н/о н/о +16.4 1011.8 1011.3
21 25.05 З 2 н/о н/о +15.8 1012.0 1011.5
23 25.05 ЮЗ 2 н/о н/о +19.6 1013.3 1012.8
22 25.05 З 2 н/о н/о +15.3 +16 +16 1012.7 1012.2
00 26.05 ЮЗ 2 н/о н/о +22.9 1013.9 1013.4
01 26.05 ЮЗ 2 н/о н/о +26.9 +22 +22 комфорт 1013.8 1013.3 +15.3
02 26.05 Ю 3 н/о н/о +31.2 1012.7 1012.2
03 26.05 В 5 н/о н/о +34.1 1011.4 1010.9
05 26.05 В 3 н/о н/о +35.4 1009.9 1009.4
04 26.05 СВ 4 н/о н/о +34.8 +30 +30 жарко 1010.8 1010.3
06 26.05 СВ 3 н/о н/о +35.3 1009.6 1009.1
07 26.05 С 7 н/о н/о +33.6 1009.5 1009.0
08 26.05 С 6 н/о н/о +31.9 1009.9 1009.4
09 26.05 С 5 н/о н/о +29.9 1010.6 1010.1
11 26.05 В 2 н/о н/о +26.3 1012.3 1011.8
10 26.05 С 4 н/о н/о +28.4 1011.4 1010.9
12 26.05 ЮВ 4 н/о н/о +26.0 1012.9 1012.4
13 26.05 штиль 0 н/о н/о +23.0 +19 +19 1012.9 1012.4 +36.0
14 26.05 С 2 н/о н/о +21.8 1012.8 1012.3
15 26.05 штиль 0 н/о н/о +19.5 1012.6 1012.1
17 26.05 ЮЗ 3 н/о н/о +18.5 1012.5 1012.0
16 26.05 СЗ 2 н/о н/о +19.5 +19 +19 1012.5 1012.0
18 26.05 СЗ 2 н/о н/о +18.9 1012.2 1011.7
19 26.05 В 2 н/о н/о +18.2 +19 +19 1012.2 1011.7
20 26.05 СЗ 2 н/о н/о +18.2 1012.2 1011.7
21 26.05 З 2 н/о н/о +17.3 1012.5 1012.0
22 26.05 СЗ 2 н/о н/о +17.5 +18 +18 1013.0 1012.5

 

Местоположение метеостанции Wyndham Aero (Западная Австралия, Австралия): широта -15.50 долгота 128.15 высота над уровнем моря 4 м.

В архиве по умолчанию представлена погода в Wyndham Aero за последнюю неделю. Архивные данные за месяц целиком и за предыдущие месяцы, начиная с января 2011 года, Вы можете получить, выбрав интересующий диапазон дат из раскрывающегося списка и нажав кнопку "Ввод!".


*Определитесь, кто Вы:
робот инопланетянин человек

Внимание! Время в таблицах - всемирное. Для получения местного времени необходимо прибавить поправку, которая в Wyndham Aero равна 8 ч.

Смотрите также архив погоды в соседних городах и на ближайших метеорологических станциях:

Погода в Kununurra (Западная Австралия, Австралия) (68 км)
Погода в Argyle Aero (Западная Австралия, Австралия) (130 км)
Погода в Port Keats Aero (Северная территория, Австралия) (203 км)
Погода в Kalumburu (Западная Австралия, Австралия) (209 км)
Погода в Truscott (Западная Австралия, Австралия) (247 км)
Погода в Troughton Island (Западная Австралия, Австралия) (290 км)
Погода в Manbulloo Csiro (Северная территория, Австралия) (291 км)
Погода в Halls Creek Airport (Западная Австралия, Австралия) (308 км)
Погода в Victoria River Downs (Северная территория, Австралия) (323 км)
Погода в Cape Don Lighthouse (Северная территория, Австралия) (375 км)

Пояснения к столбцам:

Ветер - указаны скорость ветра в м/с - средняя за 10 мин, порывы в срок и между сроками (в фигурных скобках) и направление, откуда дует ветер: С - северный, СВ - северо-восточный, В - восточный, ЮВ - юго-восточный, Ю - южный, ЮЗ - юго-западный, З - западный, СЗ - северо-западный.
Видимость - горизонтальная дальность видимости в метрах или километрах. При видимости от 1 до 10 км при отсутствии осадков обычно наблюдается дымка, при ухудшении видимости до 1 км и менее - туман. В сухую погоду видимость может ухудшаться дымом, пылью или мглою.
Явления - указаны атмосферные явления, наблюдавшиеся в срок или в последний час перед сроком; фигурными скобками обозначены явления, наблюдавшиеся между сроками (за 1-3 часа до срока); квадратными скобками обозначены град или гололедные отложения с указанием их диаметра в мм.
Облачность - указаны через наклонную черту общая и нижняя облачность в баллах и высота нижней границы облаков в метрах; квадратными скобками обозначены формы облаков: Ci - перистые, Cs - перисто-слоистые, Cc - перисто-кучевые, Ac - высококучевые, As - высокослоистые, Sc - слоисто-кучевые, Ns - слоисто-дождевые, Cu - кучевые, Cb - кучево-дождевые. Подробнее классификацию облаков см. в Атласе облаков (PDF).
T - Температура воздуха - температура, измеренная на высоте 2 м над землей.
Td - Температура точки росы - температура, при понижении до которой содержащийся в воздухе водяной пар достигнет насыщения.
f - Относительная влажность воздуха - влажноcть воздуха, измеренная на высоте 2 м над землей.
Te - Эффективная температура - температура, которую ощущает одетый по сезону человек в тени. Характеристика душности погоды. При расчете учитывается влияние влажности воздуха и скорости ветра на теплоощущения человека.
Tes - Эффективная температура на солнце - температура, которую ощущает человек, с поправкой на солнечный нагрев. Характеристика знойности погоды. Зависит от высоты солнца над горизонтом, облачности и скорости ветра. Ночью, в пасмурную погоду, а также при ветре 12 м/с и более поправка равна нулю.
P - Атмосферное давление - приведенное к уровню моря атмосферное давление.
Po - Атмосферное давление - измеренное на уровне метеостанции атмосферное давление.
Tmin - Минимальная температура - минимум температуры воздуха на высоте 2 м над землей.
Tmax - Максимальная температура - максимум температуры воздуха на высоте 2 м над землей.
R - Количество осадков - Количество выпавших осадков за период времени, мм. При наведении курсора мыши на число - период времени, за который выпало указанное количество осадков.
R24 - Количество осадков - Количество выпавших осадков за 24 часа, мм.
S - Снежный покров - Высота снежного покрова, см. При наведении курсора мыши на число - состояние снежного покрова и степень покрытия местности в баллах.